�N����,�����b,�ŏ������i�x�j,���ϕ����i�x�j,�ő啗���i�x�j,�ŏ�����(m/s),���ϕ���(m/s),�ő啗��(m/s),�C��(���j,���x�i���j,�C��(hPa),�~�J��(mm),�~�J����(�b�j,�~�J���x(mm/h),�~�Ђ傤��(hit/���u),�~�Ђ傤����(�b�j,�~�Ђ傤���x(hit/���uh),�q�[�^���x(���j,�q�[�^�[�d���iV),�d���d���iV),�Q�Ɠd���iV)
2010/05/01,00:00:01,25,133,274,0.2,1.4,9.2,17.5,67.7,1013.2,0.00,0,0.0,0.0,0,0.0,16.0,0.0,11.8,3.476
2010/05/01,00:10:01,6,145,261,0.2,1.6,10.1,17.3,68.2,1013.1,0.00,0,0.0,0.0,0,0.0,16.0,0.0,11.8,3.474
2010/05/01,00:20:01,4,174,275,0.0,1.3,8.7,17.5,66.8,1013.0,0.00,0,0.0,0.0,0,0.0,16.0,0.0,11.6,3.473
2010/05/01,00:30:01,16,190,261,0.2,1.0,7.1,18.3,63.6,1013.0,0.00,0,0.0,0.0,0,0.0,16.4,0.0,11.7,3.475
2010/05/01,00:40:01,22,190,274,0.2,0.9,8.7,18.4,62.6,1012.9,0.00,0,0.0,0.0,0,0.0,17.0,0.0,11.8,3.473
2010/05/01,00:50:01,6,183,2,0.2,1.4,7.0,17.9,64.2,1012.8,0.00,0,0.0,0.0,0,0.0,16.9,0.0,11.7,3.476
2010/05/01,01:00:01,3,178,274,0.1,1.5,11.3,17.5,65.7,1012.6,0.00,0,0.0,0.0,0,0.0,16.4,0.0,11.8,3.473
2010/05/01,01:10:01,12,140,252,0.0,1.5,6.7,17.9,63.5,1012.5,0.00,0,0.0,0.0,0,0.0,16.5,0.0,11.7,3.473
2010/05/01,01:20:01,6,139,270,0.1,1.5,10.3,17.8,64.5,1012.4,0.00,0,0.0,0.0,0,0.0,16.5,0.0,11.7,3.474
2010/05/01,01:30:01,6,124,272,0.1,1.9,9.5,17.4,66.6,1012.2,0.00,0,0.0,0.0,0,0.0,16.2,0.0,11.6,3.473
2010/05/01,01:40:01,2,141,274,0.3,1.9,10.5,17.6,66.1,1012.1,0.00,0,0.0,0.0,0,0.0,16.5,0.0,11.6,3.474
2010/05/01,01:50:01,341,138,274,0.2,2.0,10.3,17.7,66.8,1011.9,0.00,0,0.0,0.0,0,0.0,16.2,0.0,11.8,3.472
2010/05/01,02:00:01,336,126,267,0.1,2.0,11.1,17.8,67.3,1011.8,0.00,0,0.0,0.0,0,0.0,16.4,0.0,11.6,3.473
2010/05/01,02:10:01,359,130,273,0.2,2.0,11.1,17.9,66.6,1011.9,0.00,0,0.0,0.0,0,0.0,16.7,0.0,11.7,3.473
2010/05/01,02:20:01,16,128,274,0.1,1.7,10.3,17.7,65.1,1011.8,0.00,0,0.0,0.0,0,0.0,16.2,0.0,11.8,3.475
2010/05/01,02:30:01,9,108,254,0.3,2.1,7.5,17.3,59.6,1011.7,0.00,0,0.0,0.0,0,0.0,16.2,0.0,11.7,3.474
2010/05/01,02:40:01,28,89,206,0.3,2.5,7.2,18.2,50.1,1011.6,0.00,0,0.0,0.0,0,0.0,16.2,0.0,11.7,3.473
2010/05/01,02:50:01,25,119,203,0.3,1.4,6.3,18.6,47.6,1011.7,0.00,0,0.0,0.0,0,0.0,16.7,0.0,11.7,3.475
2010/05/01,03:00:01,337,152,264,0.1,2.3,12.3,18.9,46.3,1011.7,0.00,0,0.0,0.0,0,0.0,17.0,0.0,11.8,3.474
2010/05/01,03:10:01,4,178,337,0.3,1.9,10.0,18.1,46.2,1011.6,0.00,0,0.0,0.0,0,0.0,17.2,0.0,11.7,3.472
2010/05/01,03:20:01,1,167,273,0.4,1.9,11.5,18.1,46.6,1011.6,0.00,0,0.0,0.0,0,0.0,16.9,0.0,11.8,3.473
2010/05/01,03:30:01,5,185,3,0.5,2.6,11.5,18.4,49.3,1011.8,0.00,0,0.0,0.0,0,0.0,17.4,0.0,11.7,3.475
2010/05/01,03:40:01,16,193,12,0.5,3.9,11.2,18.3,51.4,1011.8,0.00,0,0.0,0.0,0,0.0,17.0,0.0,11.8,3.472
2010/05/01,03:50:01,12,192,10,0.4,3.3,11.3,18.1,55.6,1011.8,0.00,0,0.0,0.0,0,0.0,17.2,0.0,11.7,3.475
2010/05/01,04:00:01,17,192,17,0.3,2.7,11.1,18.5,53.5,1011.8,0.00,0,0.0,0.0,0,0.0,17.0,0.0,11.7,3.473
2010/05/01,04:10:01,13,121,244,0.2,1.8,8.1,17.9,59.1,1011.7,0.00,0,0.0,0.0,0,0.0,16.7,0.0,11.8,3.473
2010/05/01,04:20:01,8,191,4,0.2,1.4,7.3,18.8,58.2,1011.8,0.00,0,0.0,0.0,0,0.0,17.0,0.0,11.7,3.474
2010/05/01,04:30:01,17,193,13,0.9,5.2,11.2,19.2,55.0,1011.7,0.00,0,0.0,0.0,0,0.0,17.5,0.0,11.8,3.473
2010/05/01,04:40:01,13,195,13,0.5,4.9,12.1,18.9,57.9,1011.7,0.00,0,0.0,0.0,0,0.0,17.4,0.0,11.6,3.473
2010/05/01,04:50:01,85,211,26,0.0,6.4,12.7,18.6,60.1,1011.7,0.00,0,0.0,0.0,0,0.0,17.0,0.0,11.8,3.474
2010/05/01,05:00:01,82,222,35,0.0,7.3,13.1,18.5,61.9,1011.7,0.00,0,0.0,0.0,0,0.0,16.5,0.0,11.7,3.474
2010/05/01,05:10:01,82,234,46,0.0,3.6,12.9,18.4,61.3,1011.8,0.00,0,0.0,0.0,0,0.0,16.5,0.0,11.7,3.475
2010/05/01,05:20:01,89,230,45,0.2,1.7,6.1,18.6,61.2,1012.0,0.00,0,0.0,0.0,0,0.0,16.7,0.0,11.8,3.474
2010/05/01,05:30:01,84,248,42,0.0,2.0,6.5,18.7,59.9,1012.0,0.00,0,0.0,0.0,0,0.0,16.9,0.0,11.8,3.473
2010/05/01,05:40:01,89,243,41,0.1,1.8,6.5,18.7,58.3,1012.1,0.00,0,0.0,0.0,0,0.0,17.0,0.0,11.8,3.473
2010/05/01,05:50:01,85,244,38,0.0,7.4,13.2,18.7,62.2,1012.1,0.00,0,0.0,0.0,0,0.0,17.0,0.0,11.9,3.476
2010/05/01,06:00:01,81,241,42,0.0,4.0,13.1,18.8,60.2,1012.0,0.00,0,0.0,0.0,0,0.0,16.9,0.0,11.7,3.473
2010/05/01,06:10:01,81,223,42,0.0,4.9,13.1,18.9,60.9,1012.1,0.00,0,0.0,0.0,0,0.0,17.0,0.0,11.8,3.474
2010/05/01,06:20:01,85,238,55,0.3,2.1,7.5,18.7,63.5,1012.1,0.00,0,0.0,0.0,0,0.0,17.4,0.0,11.8,3.474
2010/05/01,06:30:01,26,139,267,0.1,2.2,7.3,18.0,66.7,1012.1,0.00,0,0.0,0.0,0,0.0,17.2,0.0,11.7,3.474
2010/05/01,06:40:01,6,118,255,0.2,2.0,9.6,18.2,69.0,1012.3,0.00,0,0.0,0.0,0,0.0,17.4,0.0,11.6,3.472
2010/05/01,06:50:01,344,122,269,0.1,2.1,10.2,18.5,68.7,1012.4,0.00,0,0.0,0.0,0,0.0,17.7,0.0,11.8,3.473
2010/05/01,07:00:01,342,118,271,0.1,2.1,10.0,18.7,67.6,1012.4,0.00,0,0.0,0.0,0,0.0,18.2,0.0,12.0,3.472
2010/05/01,07:10:01,341,140,278,0.1,1.8,10.1,19.1,64.6,1012.5,0.00,0,0.0,0.0,0,0.0,18.9,0.0,12.0,3.473
2010/05/01,07:20:01,2,175,341,0.0,1.9,12.5,19.6,62.7,1012.7,0.00,0,0.0,0.0,0,0.0,20.1,0.0,11.6,3.472
2010/05/01,07:30:01,341,152,272,0.0,1.9,13.1,20.3,66.7,1012.8,0.00,0,0.0,0.0,0,0.0,21.4,0.0,11.8,3.472
2010/05/01,07:40:01,344,128,271,0.0,2.3,12.6,20.6,67.5,1012.9,0.00,0,0.0,0.0,0,0.0,21.6,0.0,12.0,3.472
2010/05/01,07:50:01,322,135,276,0.0,2.8,13.5,21.0,67.6,1013.1,0.00,0,0.0,0.0,0,0.0,22.4,0.0,11.6,3.472
2010/05/01,08:00:01,342,131,275,0.0,2.8,13.4,21.0,66.3,1013.1,0.00,0,0.0,0.0,0,0.0,22.7,0.0,11.6,3.470
2010/05/01,08:10:01,343,128,278,0.1,2.9,10.8,21.2,66.2,1013.1,0.00,0,0.0,0.0,0,0.0,22.9,0.0,11.7,3.472
2010/05/01,08:20:01,343,133,276,0.1,3.1,11.0,21.3,66.5,1013.3,0.00,0,0.0,0.0,0,0.0,23.3,0.0,11.8,3.472
2010/05/01,08:30:01,343,120,276,0.1,2.5,10.2,21.2,66.0,1013.4,0.00,0,0.0,0.0,0,0.0,22.6,0.0,11.6,3.472
2010/05/01,08:40:01,325,124,278,0.1,2.8,11.5,21.5,65.3,1013.5,0.00,0,0.0,0.0,0,0.0,23.4,0.0,11.6,3.472
2010/05/01,08:50:01,316,126,300,0.1,3.0,10.6,22.0,65.0,1013.7,0.00,0,0.0,0.0,0,0.0,24.4,0.0,12.0,3.472
2010/05/01,09:00:01,319,126,288,0.1,3.3,10.4,22.3,64.0,1013.8,0.00,0,0.0,0.0,0,0.0,25.1,0.0,11.8,3.469
2010/05/01,09:10:01,320,135,300,0.1,4.2,10.9,22.5,63.7,1013.7,0.00,0,0.0,0.0,0,0.0,25.8,0.0,11.8,3.469
2010/05/01,09:20:01,309,126,305,0.0,3.6,11.1,22.9,61.0,1013.8,0.00,0,0.0,0.0,0,0.0,26.1,0.0,11.6,3.470
2010/05/01,09:30:01,322,126,302,0.1,4.1,11.5,22.3,61.1,1013.9,0.00,0,0.0,0.0,0,0.0,25.6,0.0,11.6,3.472
2010/05/01,09:40:01,313,127,307,0.1,3.8,13.8,22.9,62.4,1013.7,0.00,0,0.0,0.0,0,0.0,25.9,0.0,11.8,3.470
2010/05/01,09:50:01,320,132,295,0.1,3.8,11.1,22.2,62.5,1013.8,0.00,0,0.0,0.0,0,0.0,24.8,0.0,11.8,3.470
2010/05/01,10:00:01,322,120,291,0.1,3.5,11.0,22.8,60.0,1013.9,0.00,0,0.0,0.0,0,0.0,25.8,0.0,11.7,3.469
2010/05/01,10:10:01,304,123,297,0.1,4.4,14.1,23.2,58.6,1013.9,0.00,0,0.0,0.0,0,0.0,26.3,0.0,11.7,3.470
2010/05/01,10:20:01,307,123,298,0.1,4.2,11.2,23.0,56.6,1014.0,0.00,0,0.0,0.0,0,0.0,26.9,0.0,11.6,3.469
2010/05/01,10:30:01,312,124,302,0.1,4.6,11.4,23.1,55.0,1014.1,0.00,0,0.0,0.0,0,0.0,26.4,0.0,11.7,3.470
2010/05/01,10:40:01,321,122,296,0.2,4.6,13.4,23.0,53.7,1014.1,0.00,0,0.0,0.0,0,0.0,26.8,0.0,11.7,3.472
2010/05/01,10:50:01,321,126,300,0.1,4.4,13.2,23.0,55.3,1014.1,0.00,0,0.0,0.0,0,0.0,26.6,0.0,11.8,3.472
2010/05/01,11:00:01,319,125,299,0.1,4.6,11.8,23.6,51.5,1014.1,0.00,0,0.0,0.0,0,0.0,27.4,0.0,11.7,3.469
2010/05/01,11:10:01,298,119,293,0.1,4.4,14.4,23.4,53.8,1014.0,0.00,0,0.0,0.0,0,0.0,26.9,0.0,11.7,3.469
2010/05/01,11:20:01,305,121,295,0.1,4.0,13.5,23.5,53.5,1014.1,0.00,0,0.0,0.0,0,0.0,27.3,0.0,11.7,3.469
2010/05/01,11:30:01,309,121,301,0.3,4.6,14.0,23.3,52.0,1014.0,0.00,0,0.0,0.0,0,0.0,26.9,0.0,11.6,3.469
2010/05/01,11:40:01,305,118,295,0.2,4.3,11.5,23.3,52.5,1014.0,0.00,0,0.0,0.0,0,0.0,26.9,0.0,11.7,3.469
2010/05/01,11:50:01,318,122,292,0.1,4.2,13.2,23.6,50.6,1013.9,0.00,0,0.0,0.0,0,0.0,27.4,0.0,11.8,3.468
2010/05/01,12:00:01,306,124,300,0.2,4.5,11.1,23.4,52.0,1013.8,0.00,0,0.0,0.0,0,0.0,26.9,0.0,11.7,3.469
2010/05/01,12:10:01,302,120,300,0.1,4.2,11.2,23.8,50.8,1013.8,0.00,0,0.0,0.0,0,0.0,27.3,0.0,11.8,3.468
2010/05/01,12:20:01,302,118,296,0.1,4.2,11.2,23.5,50.4,1013.8,0.00,0,0.0,0.0,0,0.0,26.9,0.0,11.7,3.469
2010/05/01,12:30:01,304,120,300,0.2,4.1,13.2,23.6,48.1,1013.8,0.00,0,0.0,0.0,0,0.0,27.4,0.0,11.7,3.469
2010/05/01,12:40:01,304,121,297,0.2,4.2,11.6,23.6,50.1,1013.8,0.00,0,0.0,0.0,0,0.0,27.1,0.0,11.8,3.470
2010/05/01,12:50:01,306,117,298,0.1,4.0,10.6,23.7,50.3,1013.7,0.00,0,0.0,0.0,0,0.0,27.1,0.0,11.7,3.468
2010/05/01,13:00:01,301,119,291,0.0,4.1,11.3,24.0,49.1,1013.5,0.00,0,0.0,0.0,0,0.0,26.9,0.0,11.7,3.470
2010/05/01,13:10:01,300,119,298,0.1,4.4,13.4,23.9,47.5,1013.5,0.00,0,0.0,0.0,0,0.0,26.9,0.0,11.7,3.473
2010/05/01,13:20:01,302,118,299,0.2,4.4,12.5,23.8,48.4,1013.4,0.00,0,0.0,0.0,0,0.0,26.9,0.0,11.7,3.470
2010/05/01,13:30:01,309,118,296,0.1,4.1,10.9,23.7,49.2,1013.2,0.00,0,0.0,0.0,0,0.0,26.9,0.0,11.7,3.469
2010/05/01,13:40:01,302,121,300,0.2,4.4,11.9,23.6,48.1,1013.1,0.00,0,0.0,0.0,0,0.0,26.8,0.0,11.7,3.469
2010/05/01,13:50:01,307,122,297,0.0,4.1,11.0,24.1,46.5,1013.0,0.00,0,0.0,0.0,0,0.0,26.9,0.0,11.7,3.469
2010/05/01,14:00:01,304,119,297,0.1,4.3,13.0,23.8,49.4,1012.9,0.00,0,0.0,0.0,0,0.0,26.8,0.0,11.7,3.470
2010/05/01,14:10:01,308,120,298,0.1,4.1,12.3,23.9,47.8,1012.9,0.00,0,0.0,0.0,0,0.0,26.9,0.0,11.7,3.470
2010/05/01,14:20:01,300,119,298,0.1,4.0,13.1,23.6,50.2,1013.0,0.00,0,0.0,0.0,0,0.0,26.4,0.0,11.7,3.470
2010/05/01,14:30:01,305,123,302,0.1,4.4,12.8,23.6,50.4,1012.8,0.00,0,0.0,0.0,0,0.0,26.4,0.0,11.7,3.470
2010/05/01,14:40:01,302,122,296,0.0,4.2,11.3,23.5,50.7,1012.8,0.00,0,0.0,0.0,0,0.0,25.9,0.0,11.6,3.470
2010/05/01,14:50:01,307,122,297,0.2,4.2,11.0,23.6,50.4,1012.6,0.00,0,0.0,0.0,0,0.0,26.1,0.0,11.7,3.469
2010/05/01,15:00:01,302,120,299,0.2,4.2,12.1,23.5,49.8,1012.6,0.00,0,0.0,0.0,0,0.0,26.1,0.0,11.7,3.472
2010/05/01,15:10:01,300,119,295,0.1,4.2,11.8,23.4,47.8,1012.4,0.00,0,0.0,0.0,0,0.0,26.1,0.0,11.7,3.469
2010/05/01,15:20:01,300,119,296,0.1,4.0,11.9,23.5,49.5,1012.3,0.00,0,0.0,0.0,0,0.0,25.9,0.0,11.7,3.470
2010/05/01,15:30:01,304,120,298,0.2,4.3,13.2,23.5,49.9,1012.4,0.00,0,0.0,0.0,0,0.0,25.8,0.0,11.7,3.470
2010/05/01,15:40:01,313,119,290,0.3,3.8,12.4,23.5,49.8,1012.1,0.00,0,0.0,0.0,0,0.0,25.9,0.0,11.6,3.470
2010/05/01,15:50:01,301,119,299,0.2,4.1,12.7,23.2,49.2,1011.9,0.00,0,0.0,0.0,0,0.0,25.4,0.0,11.7,3.470
2010/05/01,16:00:01,300,119,294,0.2,4.0,13.0,23.3,49.3,1011.8,0.00,0,0.0,0.0,0,0.0,25.4,0.0,11.7,3.470
2010/05/01,16:10:01,309,119,296,0.2,3.8,12.1,23.1,49.4,1011.9,0.00,0,0.0,0.0,0,0.0,25.1,0.0,11.9,3.472
2010/05/01,16:20:01,314,121,291,0.2,4.0,11.6,23.1,49.6,1012.0,0.00,0,0.0,0.0,0,0.0,24.9,0.0,12.0,3.469
2010/05/01,16:30:01,305,122,295,0.1,3.7,13.0,22.9,50.5,1011.9,0.00,0,0.0,0.0,0,0.0,24.4,0.0,12.0,3.469
2010/05/01,16:40:01,312,121,296,0.2,3.8,10.9,22.7,50.2,1012.0,0.00,0,0.0,0.0,0,0.0,24.3,0.0,11.9,3.470
2010/05/01,16:50:01,12,121,296,0.1,3.4,10.2,22.6,51.6,1011.9,0.00,0,0.0,0.0,0,0.0,23.9,0.0,11.7,3.470
2010/05/01,17:00:01,322,128,301,0.1,3.1,9.6,22.6,51.6,1011.7,0.00,0,0.0,0.0,0,0.0,23.8,0.0,11.7,3.470
2010/05/01,17:10:01,326,130,306,0.0,3.0,12.3,22.4,50.9,1011.8,0.00,0,0.0,0.0,0,0.0,23.3,0.0,11.7,3.472
2010/05/01,17:20:01,325,125,280,0.2,3.1,10.0,22.2,51.5,1011.8,0.00,0,0.0,0.0,0,0.0,22.7,0.0,11.7,3.472
2010/05/01,17:30:01,321,130,284,0.1,2.8,13.0,22.2,51.3,1011.9,0.00,0,0.0,0.0,0,0.0,22.7,0.0,11.7,3.470
2010/05/01,17:40:01,343,131,277,0.0,2.5,10.5,22.1,51.0,1012.0,0.00,0,0.0,0.0,0,0.0,22.7,0.0,11.7,3.472
2010/05/01,17:50:01,24,130,272,0.1,2.3,9.9,21.9,50.6,1011.9,0.00,0,0.0,0.0,0,0.0,22.4,0.0,11.6,3.473
2010/05/01,18:00:01,343,134,274,0.0,2.2,10.3,21.9,51.8,1012.0,0.00,0,0.0,0.0,0,0.0,22.2,0.0,11.7,3.472
2010/05/01,18:10:01,340,134,269,0.0,1.8,10.4,21.6,53.0,1012.1,0.00,0,0.0,0.0,0,0.0,21.6,0.0,11.9,3.470
2010/05/01,18:20:01,342,141,269,0.1,1.6,13.0,21.3,53.6,1012.1,0.00,0,0.0,0.0,0,0.0,20.9,0.0,11.9,3.472
2010/05/01,18:30:01,340,141,269,0.1,1.5,10.0,21.2,54.3,1012.2,0.00,0,0.0,0.0,0,0.0,20.7,0.0,11.7,3.472
2010/05/01,18:40:01,6,143,269,0.1,1.6,12.9,21.0,54.1,1012.3,0.00,0,0.0,0.0,0,0.0,20.4,0.0,11.7,3.473
2010/05/01,18:50:01,341,136,264,0.1,1.8,10.0,20.8,53.8,1012.3,0.00,0,0.0,0.0,0,0.0,20.1,0.0,11.6,3.472
2010/05/01,19:00:01,340,133,267,0.1,2.1,11.0,20.8,53.2,1012.3,0.00,0,0.0,0.0,0,0.0,19.7,0.0,11.7,3.472
2010/05/01,19:10:01,341,132,271,0.1,2.3,10.2,20.8,53.6,1012.3,0.00,0,0.0,0.0,0,0.0,19.9,0.0,11.8,3.470
2010/05/01,19:20:01,339,133,269,0.1,2.4,10.5,20.8,54.1,1012.4,0.00,0,0.0,0.0,0,0.0,19.9,0.0,11.7,3.472
2010/05/01,19:30:01,341,137,273,0.0,2.5,10.7,20.8,53.3,1012.4,0.00,0,0.0,0.0,0,0.0,19.9,0.0,11.7,3.473
2010/05/01,19:40:01,337,132,268,0.1,2.3,10.5,20.8,53.7,1012.3,0.00,0,0.0,0.0,0,0.0,19.7,0.0,11.7,3.473
2010/05/01,19:50:01,341,131,268,0.1,2.2,10.0,20.7,54.1,1012.4,0.00,0,0.0,0.0,0,0.0,19.6,0.0,11.7,3.472
2010/05/01,20:00:01,13,130,271,0.0,2.2,10.7,20.4,54.6,1012.4,0.00,0,0.0,0.0,0,0.0,19.6,0.0,11.7,3.473
2010/05/01,20:10:01,340,137,274,0.0,2.3,10.3,20.5,55.1,1012.6,0.00,0,0.0,0.0,0,0.0,19.4,0.0,11.7,3.473
2010/05/01,20:20:01,1,129,268,0.1,2.3,9.6,20.5,55.4,1012.8,0.00,0,0.0,0.0,0,0.0,19.6,0.0,11.7,3.473
2010/05/01,20:30:01,321,134,294,0.1,2.1,10.3,20.4,55.5,1012.8,0.00,0,0.0,0.0,0,0.0,19.4,0.0,11.7,3.473
2010/05/01,20:40:01,326,130,268,0.0,2.1,10.1,20.3,55.8,1012.9,0.00,0,0.0,0.0,0,0.0,19.4,0.0,11.7,3.472
2010/05/01,20:50:01,339,133,270,0.1,2.1,10.2,20.3,56.1,1012.9,0.00,0,0.0,0.0,0,0.0,19.2,0.0,11.7,3.473
2010/05/01,21:00:01,341,126,269,0.0,2.1,10.0,20.3,55.6,1013.0,0.00,0,0.0,0.0,0,0.0,19.4,0.0,11.7,3.474
2010/05/01,21:10:01,340,132,268,0.0,1.9,10.6,20.2,56.5,1013.0,0.00,0,0.0,0.0,0,0.0,19.2,0.0,11.6,3.473
2010/05/01,21:20:01,341,129,273,0.0,2.2,10.3,20.1,57.6,1013.1,0.00,0,0.0,0.0,0,0.0,19.4,0.0,11.7,3.473
2010/05/01,21:30:01,340,125,270,0.1,2.5,10.4,20.2,58.5,1013.1,0.00,0,0.0,0.0,0,0.0,18.9,0.0,11.7,3.470
2010/05/01,21:40:01,340,128,272,0.1,2.4,10.6,20.2,59.3,1013.1,0.00,0,0.0,0.0,0,0.0,19.2,0.0,11.6,3.472
2010/05/01,21:50:01,336,126,280,0.1,2.6,10.7,20.2,59.6,1013.2,0.00,0,0.0,0.0,0,0.0,19.2,0.0,11.8,3.472
2010/05/01,22:00:01,325,125,272,0.1,2.8,10.5,20.2,60.0,1013.0,0.00,0,0.0,0.0,0,0.0,19.1,0.0,11.8,3.473
2010/05/01,22:10:01,340,128,280,0.1,2.9,10.8,20.2,60.5,1013.0,0.00,0,0.0,0.0,0,0.0,19.1,0.0,11.7,3.473
2010/05/01,22:20:01,340,127,271,0.1,2.9,10.8,20.2,61.1,1012.9,0.00,0,0.0,0.0,0,0.0,19.2,0.0,11.7,3.473
2010/05/01,22:30:01,344,125,278,0.2,2.8,11.3,20.2,61.5,1012.9,0.00,0,0.0,0.0,0,0.0,19.2,0.0,11.7,3.472
2010/05/01,22:40:01,340,126,273,0.0,2.6,10.4,20.1,61.9,1012.9,0.00,0,0.0,0.0,0,0.0,19.2,0.0,11.8,3.473
2010/05/01,22:50:01,340,126,280,0.1,2.7,10.7,20.1,62.5,1013.0,0.00,0,0.0,0.0,0,0.0,19.1,0.0,11.8,3.473
2010/05/01,23:00:01,338,128,272,0.0,2.9,10.5,20.0,62.9,1012.9,0.00,0,0.0,0.0,0,0.0,19.1,0.0,11.7,3.473
2010/05/01,23:10:01,322,124,274,0.1,2.9,11.0,20.0,63.7,1012.8,0.00,0,0.0,0.0,0,0.0,18.9,0.0,11.8,3.473
2010/05/01,23:20:01,325,124,275,0.0,3.0,11.4,20.0,63.5,1012.8,0.00,0,0.0,0.0,0,0.0,19.1,0.0,11.8,3.472
2010/05/01,23:30:01,338,124,274,0.0,2.9,10.4,20.0,63.2,1012.6,0.00,0,0.0,0.0,0,0.0,18.9,0.0,11.6,3.472
2010/05/01,23:40:01,319,126,276,0.1,2.9,10.9,20.1,62.6,1012.5,0.00,0,0.0,0.0,0,0.0,18.9,0.0,11.7,3.473
2010/05/01,23:50:01,343,124,278,0.2,3.0,10.6,20.1,63.0,1012.5,0.00,0,0.0,0.0,0,0.0,19.1,0.0,11.7,3.473
2010/05/02,00:00:01,325,125,279,0.1,3.1,11.0,20.0,63.4,1012.4,0.00,0,0.0,0.0,0,0.0,19.2,0.0,11.5,3.473
2010/05/02,00:10:01,317,121,300,0.1,3.2,12.4,19.9,64.4,1012.3,0.00,0,0.0,0.0,0,0.0,19.1,0.0,12.0,3.473
2010/05/02,00:20:01,318,122,278,0.2,3.5,11.4,19.9,65.4,1012.0,0.00,0,0.0,0.0,0,0.0,18.7,0.0,11.8,3.473
2010/05/02,00:30:01,313,123,276,0.1,3.5,11.1,19.9,66.3,1012.0,0.00,0,0.0,0.0,0,0.0,18.9,0.0,11.8,3.473
2010/05/02,00:40:01,340,121,286,0.2,3.3,11.1,20.0,66.2,1012.0,0.00,0,0.0,0.0,0,0.0,18.9,0.0,12.0,3.472
2010/05/02,00:50:01,342,126,279,0.0,3.5,13.4,20.0,66.8,1012.0,0.00,0,0.0,0.0,0,0.0,18.9,0.0,11.8,3.473
2010/05/02,01:00:01,325,125,281,0.1,3.5,11.5,20.0,66.4,1012.1,0.00,0,0.0,0.0,0,0.0,18.9,0.0,11.8,3.473
2010/05/02,01:10:01,335,122,275,0.0,3.1,10.5,20.0,66.4,1012.2,0.00,0,0.0,0.0,0,0.0,19.1,0.0,11.9,3.475
2010/05/02,01:20:01,341,126,276,0.0,2.7,10.5,20.0,66.9,1012.1,0.00,0,0.0,0.0,0,0.0,18.9,0.0,11.9,3.473
2010/05/02,01:30:01,335,138,275,0.1,2.3,10.8,20.1,66.3,1012.0,0.00,0,0.0,0.0,0,0.0,18.7,0.0,12.0,3.473
2010/05/02,01:40:01,337,156,273,0.0,2.8,12.9,20.0,66.3,1012.0,0.00,0,0.0,0.0,0,0.0,18.7,0.0,12.0,3.472
2010/05/02,01:50:01,353,170,343,0.1,3.6,13.2,20.1,66.1,1012.0,0.00,0,0.0,0.0,0,0.0,18.7,0.0,11.9,3.473
2010/05/02,02:00:01,349,167,344,0.1,3.1,12.9,20.2,65.9,1011.9,0.00,0,0.0,0.0,0,0.0,18.7,0.0,11.9,3.472
2010/05/02,02:10:01,341,161,340,0.1,2.8,12.5,20.2,67.0,1011.8,0.00,0,0.0,0.0,0,0.0,18.7,0.0,12.0,3.473
2010/05/02,02:20:01,0,168,341,0.1,2.5,12.4,20.0,68.3,1011.7,0.00,0,0.0,0.0,0,0.0,18.7,0.0,11.9,3.473
2010/05/02,02:30:01,357,165,342,0.1,3.1,12.6,20.3,67.0,1011.5,0.00,0,0.0,0.0,0,0.0,19.1,0.0,11.9,3.473
2010/05/02,02:40:01,359,171,342,0.1,2.8,12.7,20.2,67.3,1011.5,0.00,0,0.0,0.0,0,0.0,18.9,0.0,12.0,3.473
2010/05/02,02:50:01,1,162,342,0.0,2.8,12.6,20.1,67.6,1011.3,0.00,0,0.0,0.0,0,0.0,18.7,0.0,11.8,3.473
2010/05/02,03:00:01,359,174,342,0.0,3.2,12.2,20.1,68.2,1011.3,0.00,0,0.0,0.0,0,0.0,18.6,0.0,12.0,3.473
2010/05/02,03:10:01,1,178,342,0.0,2.9,12.1,20.1,68.3,1011.2,0.00,0,0.0,0.0,0,0.0,18.9,0.0,11.9,3.473
2010/05/02,03:20:01,1,178,1,0.0,3.0,10.2,20.1,68.3,1011.1,0.00,0,0.0,0.0,0,0.0,18.9,0.0,12.0,3.472
2010/05/02,03:30:01,4,155,267,0.0,1.8,9.3,20.1,68.7,1010.9,0.00,0,0.0,0.0,0,0.0,18.7,0.0,11.8,3.472
2010/05/02,03:40:01,342,140,270,0.0,2.1,12.6,20.0,68.8,1011.0,0.00,0,0.0,0.0,0,0.0,18.7,0.0,12.0,3.472
2010/05/02,03:50:01,5,145,277,0.1,2.0,11.0,20.1,67.9,1011.0,0.00,0,0.0,0.0,0,0.0,19.1,0.0,11.8,3.472
2010/05/02,04:00:01,3,148,268,0.1,1.9,11.1,20.1,67.8,1011.0,0.00,0,0.0,0.0,0,0.0,18.9,0.0,11.9,3.473
2010/05/02,04:10:01,339,142,271,0.1,2.1,11.0,20.2,68.0,1010.9,0.00,0,0.0,0.0,0,0.0,19.1,0.0,12.1,3.473
2010/05/02,04:20:01,13,143,268,0.1,1.8,7.9,20.1,68.6,1011.0,0.00,0,0.0,0.0,0,0.0,18.9,0.0,11.9,3.473
2010/05/02,04:30:01,4,140,300,0.1,2.0,10.5,20.2,69.0,1011.0,0.00,0,0.0,0.0,0,0.0,18.9,0.0,12.0,3.473
2010/05/02,04:40:01,342,136,273,0.1,2.3,11.7,20.3,69.0,1010.7,0.00,0,0.0,0.0,0,0.0,19.1,0.0,11.7,3.473
2010/05/02,04:50:01,342,136,274,0.1,2.8,10.9,20.4,68.4,1010.7,0.00,0,0.0,0.0,0,0.0,19.2,0.0,11.7,3.472
2010/05/02,05:00:01,2,134,310,0.1,2.5,11.2,20.4,68.4,1010.8,0.00,0,0.0,0.0,0,0.0,19.2,0.0,11.7,3.472
2010/05/02,05:10:01,359,136,268,0.0,2.3,10.9,20.3,68.7,1010.8,0.00,0,0.0,0.0,0,0.0,19.2,0.0,11.8,3.473
2010/05/02,05:20:01,0,136,273,0.0,2.2,11.0,20.3,69.3,1010.8,0.00,0,0.0,0.0,0,0.0,19.1,0.0,11.8,3.472
2010/05/02,05:30:01,343,137,267,0.1,2.2,10.5,20.4,69.8,1011.0,0.00,0,0.0,0.0,0,0.0,19.1,0.0,11.8,3.473
2010/05/02,05:40:01,354,139,267,0.0,2.1,10.3,20.3,70.3,1011.1,0.00,0,0.0,0.0,0,0.0,19.1,0.0,11.7,3.473
2010/05/02,05:50:01,21,137,267,0.1,1.9,8.7,20.4,70.7,1011.2,0.00,0,0.0,0.0,0,0.0,18.7,0.0,11.8,3.472
2010/05/02,06:00:01,23,143,270,0.0,2.3,10.8,20.5,70.9,1011.2,0.00,0,0.0,0.0,0,0.0,19.1,0.0,11.7,3.473
2010/05/02,06:10:01,326,144,315,0.1,2.5,10.9,20.6,70.9,1011.3,0.00,0,0.0,0.0,0,0.0,19.6,0.0,11.6,3.473
2010/05/02,06:20:01,339,146,267,0.1,2.3,11.3,20.6,70.9,1011.3,0.00,0,0.0,0.0,0,0.0,19.4,0.0,11.6,3.472
2010/05/02,06:30:01,0,143,278,0.0,2.5,10.5,20.8,70.5,1011.4,0.00,0,0.0,0.0,0,0.0,19.7,0.0,11.6,3.472
2010/05/02,06:40:01,342,149,272,0.0,2.0,11.0,20.8,70.8,1011.5,0.00,0,0.0,0.0,0,0.0,19.9,0.0,11.7,3.473
2010/05/02,06:50:01,341,160,269,0.0,2.0,10.1,21.0,70.6,1011.6,0.00,0,0.0,0.0,0,0.0,20.4,0.0,11.7,3.473
2010/05/02,07:00:01,16,144,326,0.1,1.7,8.2,21.1,70.8,1011.7,0.00,0,0.0,0.0,0,0.0,20.9,0.0,11.7,3.473
2010/05/02,07:10:01,342,144,270,0.1,1.7,10.9,21.1,71.3,1011.6,0.00,0,0.0,0.0,0,0.0,20.9,0.0,11.7,3.473
2010/05/02,07:20:01,23,151,269,0.0,2.1,9.8,21.5,71.6,1011.7,0.00,0,0.0,0.0,0,0.0,21.4,0.0,12.0,3.472
2010/05/02,07:30:01,342,144,324,0.1,2.0,9.9,21.8,70.2,1011.8,0.00,0,0.0,0.0,0,0.0,22.6,0.0,11.5,3.472
2010/05/02,07:40:01,327,147,321,0.0,3.0,10.2,22.2,69.2,1011.9,0.00,0,0.0,0.0,0,0.0,23.3,0.0,11.6,3.470
2010/05/02,07:50:01,342,144,326,0.0,3.0,10.5,22.4,68.4,1012.0,0.00,0,0.0,0.0,0,0.0,23.8,0.0,11.7,3.470
2010/05/02,08:00:01,321,133,273,0.1,2.8,10.6,22.8,68.2,1012.1,0.00,0,0.0,0.0,0,0.0,24.3,0.0,12.0,3.470
2010/05/02,08:10:01,320,132,310,0.1,3.1,13.7,23.1,66.8,1012.2,0.00,0,0.0,0.0,0,0.0,24.9,0.0,12.0,3.469
2010/05/02,08:20:01,321,141,317,0.0,3.7,14.3,23.2,64.8,1012.4,0.00,0,0.0,0.0,0,0.0,25.6,0.0,11.8,3.470
2010/05/02,08:30:01,324,126,279,0.0,3.3,9.7,23.3,65.5,1012.4,0.00,0,0.0,0.0,0,0.0,25.4,0.0,11.6,3.469
2010/05/02,08:40:01,318,135,314,0.1,3.9,14.1,23.4,64.8,1012.5,0.00,0,0.0,0.0,0,0.0,25.8,0.0,11.6,3.470
2010/05/02,08:50:01,342,148,301,0.1,4.2,11.5,23.1,64.5,1012.9,0.00,0,0.0,0.0,0,0.0,24.9,0.0,12.0,3.470
2010/05/02,09:00:01,318,133,276,0.1,3.3,9.2,23.3,64.7,1012.8,0.00,0,0.0,0.0,0,0.0,25.1,0.0,11.9,3.472
2010/05/02,09:10:01,324,145,322,0.1,3.5,11.1,23.4,65.5,1012.6,0.00,0,0.0,0.0,0,0.0,25.8,0.0,11.6,3.469
2010/05/02,09:20:01,322,140,316,0.1,3.6,10.0,23.7,65.3,1012.7,0.00,0,0.0,0.0,0,0.0,25.9,0.0,11.6,3.469
2010/05/02,09:30:01,18,154,325,0.1,4.7,11.4,23.6,64.8,1012.7,0.00,0,0.0,0.0,0,0.0,26.3,0.0,11.7,3.469
2010/05/02,09:40:01,321,134,289,0.1,3.6,9.7,24.0,62.9,1012.6,0.00,0,0.0,0.0,0,0.0,26.6,0.0,11.6,3.470
2010/05/02,09:50:01,322,134,304,0.1,3.5,9.8,24.1,62.2,1012.8,0.00,0,0.0,0.0,0,0.0,26.6,0.0,11.6,3.470
2010/05/02,10:00:01,321,135,313,0.1,3.5,9.5,23.9,62.9,1012.8,0.00,0,0.0,0.0,0,0.0,26.3,0.0,11.8,3.470
2010/05/02,10:10:01,318,135,288,0.1,4.1,13.6,23.7,62.8,1012.6,0.00,0,0.0,0.0,0,0.0,26.1,0.0,11.6,3.469
2010/05/02,10:20:01,322,133,305,0.0,3.7,11.5,24.2,62.6,1012.6,0.00,0,0.0,0.0,0,0.0,26.9,0.0,11.8,3.469
2010/05/02,10:30:01,311,129,309,0.1,4.0,12.7,24.4,62.2,1013.0,0.00,0,0.0,0.0,0,0.0,27.6,0.0,12.0,3.469
2010/05/02,10:40:01,303,122,300,0.2,4.0,11.6,24.1,61.9,1012.9,0.00,0,0.0,0.0,0,0.0,27.1,0.0,11.6,3.470
2010/05/02,10:50:01,309,121,298,0.2,4.1,14.6,23.8,63.1,1012.9,0.00,0,0.0,0.0,0,0.0,25.9,0.0,11.6,3.470
2010/05/02,11:00:01,306,125,305,0.1,4.1,12.3,24.1,62.2,1012.7,0.00,0,0.0,0.0,0,0.0,26.9,0.0,11.6,3.469
2010/05/02,11:10:01,303,120,298,0.2,4.1,10.9,23.9,63.3,1012.6,0.00,0,0.0,0.0,0,0.0,26.4,0.0,11.7,3.470
2010/05/02,11:20:01,300,120,293,0.2,4.0,12.5,23.9,63.3,1012.5,0.00,0,0.0,0.0,0,0.0,26.4,0.0,11.7,3.470
2010/05/02,11:30:01,320,119,292,0.2,4.1,11.2,23.9,63.6,1012.5,0.00,0,0.0,0.0,0,0.0,26.4,0.0,11.7,3.470
2010/05/02,11:40:01,322,124,303,0.0,4.2,11.9,24.4,61.8,1012.6,0.00,0,0.0,0.0,0,0.0,27.1,0.0,11.8,3.470
2010/05/02,11:50:01,309,123,302,0.2,4.3,13.2,23.9,62.0,1012.5,0.00,0,0.0,0.0,0,0.0,26.4,0.0,11.8,3.469
2010/05/02,12:00:01,304,124,296,0.1,3.6,10.5,23.8,63.7,1012.5,0.00,0,0.0,0.0,0,0.0,26.1,0.0,11.7,3.469
2010/05/02,12:10:01,326,126,300,0.2,3.8,12.6,23.8,64.5,1012.2,0.00,0,0.0,0.0,0,0.0,25.9,0.0,11.8,3.472
2010/05/02,12:20:01,302,120,294,0.1,4.1,11.6,23.6,63.6,1012.2,0.00,0,0.0,0.0,0,0.0,25.8,0.0,11.7,3.470
2010/05/02,12:30:01,319,121,299,0.1,4.1,11.7,23.4,64.5,1011.8,0.00,0,0.0,0.0,0,0.0,25.4,0.0,11.6,3.470
2010/05/02,12:40:01,304,125,282,0.2,3.9,11.1,23.7,63.5,1011.8,0.00,0,0.0,0.0,0,0.0,25.6,0.0,11.6,3.472
2010/05/02,12:50:01,302,119,297,0.1,4.3,12.8,23.4,63.2,1011.6,0.00,0,0.0,0.0,0,0.0,25.3,0.0,11.7,3.473
2010/05/02,13:00:01,306,121,292,0.1,4.0,12.8,23.5,64.0,1011.6,0.00,0,0.0,0.0,0,0.0,25.1,0.0,11.9,3.469
2010/05/02,13:10:01,300,117,290,0.2,3.9,11.4,23.4,63.1,1011.5,0.00,0,0.0,0.0,0,0.0,25.3,0.0,11.9,3.472
2010/05/02,13:20:01,308,121,295,0.2,3.9,11.4,23.6,64.4,1011.3,0.00,0,0.0,0.0,0,0.0,25.3,0.0,11.7,3.470
2010/05/02,13:30:01,319,125,300,0.2,4.2,14.4,23.5,63.9,1011.1,0.02,40,0.0,0.0,0,0.0,25.4,0.0,11.8,3.470
2010/05/02,13:40:01,309,123,285,0.1,4.1,11.5,23.3,65.8,1011.1,0.00,0,0.0,0.0,0,0.0,24.6,0.0,12.0,3.470
2010/05/02,13:50:01,314,123,292,0.1,3.8,11.2,23.1,65.7,1010.9,0.00,0,0.0,0.0,0,0.0,24.4,0.0,11.8,3.470
2010/05/02,14:00:01,324,123,293,0.1,3.6,10.9,23.2,64.3,1010.9,0.00,0,0.0,0.0,0,0.0,24.4,0.0,11.9,3.469
2010/05/02,14:10:01,308,122,298,0.1,4.1,13.9,23.0,66.4,1010.9,0.00,0,0.0,0.0,0,0.0,23.9,0.0,11.6,3.472
2010/05/02,14:20:01,309,126,294,0.2,3.9,13.4,22.8,65.9,1010.7,0.00,0,0.0,0.0,0,0.0,23.6,0.0,11.8,3.472